Location: Poughquag
(41.6090°N, 73.6820°W)
Time: 12:45:47
(UTC-04:00)

Tiros 1 despin weight - Pass Details

Date: 29 May 2020
Orbit: 593 x 642 km, 48.2° (Epoch: 07 July)

Event Time Altitude Azimuth Distance (km) Brightness Sun altitude
Rises 18:59:40 0° 285° (WNW) 2,849 ? 13.0°
Reaches altitude 10° 19:02:50 10° 262° (W) 1,933 ? 12.4°
Maximum altitude 19:05:19 15° 227° (SW) 1,634 ? 12.0°
Drops below altitude 10° 19:07:46 10° 193° (SSW) 1,917 ? 11.5°
Sets 19:10:54 0° 170° (S) 2,810 ? 11.0°
